Regional Weather Roundup
Issued by NWS Kansas City/Pleasant Hill, MO

Home | Current Version | Previous Version | Graphics & Text | Print | Product List | Glossary Off
Versions: 1 2 3 4 5 6 7 8 9 10 11 12 13 14 15 16 17 18 19 20 21 22 23 24 25 26 27 28 29 30 31 32 33 34 35 36 37 38 39 40 41 42 43 44 45 46 47 48 49 50

000
ASUS43 KEAX 180910
RWREAX

WEATHER ROUNDUP FOR EASTERN KANSAS AND NORTHWEST MISSOURI
NATIONAL WEATHER SERVICE KANSAS CITY/PLEASANT HILL MO
300 AM CST THU DEC 18 2014

KSZ040-057-103>105-MOZ028-029-037-043-181000-
...KANSAS CITY METROPOLITAN AREA...

CITY           SKY/WX    TMP DP  RH WIND       PRES   REMARKS
K.C. INTL      LGT SNOW  28  26  92 E7        30.22S VSB 1   WCI  21
K.C. DOWNTOWN  LGT SNOW  29  26  89 E8        30.24S FOG     WCI  21
LEES SUMMIT    LGT SNOW  28  26  92 E7        30.23S FOG     WCI  21
OLATHE - IXD   LGT SNOW  28  26  92 E6        30.22R FOG     WCI  22
OLATHE - OJC   LGT SNOW  28  27  96 E3        30.21S FOG
LAWRENCE       CLOUDY    28  26  92 E5        30.24R FOG     WCI  23

$$

MOZ001>008-011>017-020>025-030>033-038>040-044>046-053-054-181000-
...NORTHERN AND CENTRAL MISSOURI...

CITY           SKY/WX    TMP DP  RH WIND       PRES   REMARKS
ST. JOSEPH     LGT SNOW  28  26  92 E3        30.25S VSB 3/4
MOSBY          LGT SNOW  28  28 100 CALM      30.25S
WARRENSBURG    LGT SNOW  30  28  93 NE3       30.24S
WHITEMAN AFB   LGT SNOW  29  28  93 NE6       30.23S FOG     WCI  23
CLINTON        LGT SNOW  32  32 100 E5        30.24R WCI  27
SEDALIA        LGT SNOW  31  28  89 E3        30.24S FOG
WARSAW         NOT AVBL
MARSHALL       LGT SNOW  32  30  93 NE6       30.25  WCI  26
CHILLICOTHE      N/A     30  21  69 E5        30.28R WCI  25
MOBERLY        CLOUDY    28  21  74 E8        30.27F WCI  20
KIRKSVILLE     CLOUDY    26  21  81 E7        30.27S WCI  18

$$

MOZ041-047>049-056>058-063>065-088>090-097-181000-
...EASTERN AND SOUTHERN MISSOURI...

CITY           SKY/WX    TMP DP  RH WIND       PRES   REMARKS
ST. LOUIS INTL CLOUDY    31  24  75 E5        30.29R WCI  26
SPIRIT OF STL  CLOUDY   N/A N/A N/A N3        30.29R
COLUMBIA       LGT SNOW  30  27  88 NE8       30.25F FOG     WCI  22
JEFFERSON CITY FLURRIES  32  27  81 NE5       30.27F WCI  27
HANNIBAL       CLOUDY    28  21  74 CALM      30.28S
ROLLA          LGT SNOW  30  28  92 E6        30.22S FOG     WCI  24
LEBANON        CLOUDY    32  32 100 E5        30.20S FOG     WCI  27
OSAGE BEACH    CLOUDY    30  28  93 NE6       30.23S WCI  24
SPRINGFIELD    CLOUDY    33  31  92 SE6       30.16F WCI  28
BRANSON        CLOUDY    32  32 100 SE8       30.17F WCI  25
JOPLIN         LGT RAIN  34  33  96 NE3       30.19S FOG
WEST PLAINS    CLOUDY    33  31  92 SE6       30.21S FOG     WCI  28

$$

IAZ060-094-KSZ022-034>040-054-083-096-NEZ052-066-093-181000-
...KANSAS...SOUTHEAST NEBRASKA AND IOWA...

CITY           SKY/WX    TMP DP  RH WIND       PRES   REMARKS
TOPEKA         LGT SNOW  30  27  88 E6        30.23R FOG     WCI  24
MANHATTAN      LGT SNOW  27  26  96 NE6       30.20S FOG     WCI  20
EMPORIA        LGT SNOW  28  27  96 E7        30.17F FOG     WCI  21
CHANUTE        LGT SNOW  31  30  96 E6        30.18S FOG     WCI  25
WICHITA        LGT SNOW  32  29  88 E5        30.14R FOG     WCI  27
OMAHA          CLOUDY    28  21  75 E7        30.25F WCI  21
LINCOLN        CLOUDY    27  20  75 E5        30.23S WCI  22
FALLS CITY     LGT SNOW  27  25  92 E5        30.22F FOG     WCI  22
LAMONI         CLOUDY    26  19  74 E5        30.24F WCI  20
DES MOINES     CLOUDY    23  17  78 E7        30.28F WCI  15

$$




USA.gov is the U.S. government's official web portal to all federal, state and local government web resources and services.